Weather History for KLIC - February, 2013

Change the Weather History Date:

Monday, February 18, 2013

  Actual Average Record
Temperature  
Mean Temperature 23 °F -  
Max Temperature 40 °F - 63 °F (2004)
Min Temperature 5 °F - -9 °F (2006)
Degree Days  
Heating Degree Days 42    
Month to date heating degree days 642  
Cooling Degree Days 0    
Month to date cooling degree days 0  
Moisture  
Dew Point 10 °F    
Average Humidity 59    
Maximum Humidity 87    
Minimum Humidity 20    
Precipitation  
Precipitation 0.00 in - 0.02 in (1997)
Month to date precipitation 0.02  
Year to date precipitation 0.31  
Sea Level Pressure  
Sea Level Pressure 29.98 in    
Wind  
Wind Speed 17 mph (NNW)    
Max Wind Speed 29 mph    
Max Gust Speed 41 mph    
Visibility 10 miles    
Events      
T = Trace of Precipitation, MM = Missing Value Source: NWS Daily Summary

Daily Weather History Graph

Daily Weather History Graph

Search for Another Location

Airport or City:

Trip Planner

Search our weather history database for the weather conditions in past years. The results will help you decide how hot, cold, wet, or windy it might be!

Date:

Astronomy

Feb. 18, 2013 Rise Set
Actual Time 6:42 AM MST 5:35 PM MST
Civil Twilight 6:14 AM MST 6:02 PM MST
Nautical Twilight 5:43 AM MST 6:34 PM MST
Astronomical Twilight 5:12 AM MST 7:05 PM MST
Moon 11:24 AM MST (2/18) 1:23 AM MST (2/18)
Length of Visible Light 11h 47m
Length of Day
10h 53m
First Quarter, 59% of the Moon is Illuminated
Feb 18
First Quarter
Feb 25
Full
Mar 4
Last Quarter
Mar 11
New
Mar 19
First Quarter

Hourly Weather History & Observations

Time (MST) Temp. Windchill Dew Point Humidity Pressure Visibility Wind Dir Wind Speed Gust Speed Precip Events Conditions
12:55 AM 25.0 °F 11.3 °F 18.0 °F 75% 29.68 in 10.0 mi North 18.4 mph 21.9 mph N/A   Clear
1:55 AM 25.0 °F 10.2 °F 18.0 °F 75% 29.70 in 10.0 mi North 21.9 mph 27.6 mph N/A   Clear
2:55 AM 23.0 °F 7.6 °F 17.1 °F 78% 29.73 in 10.0 mi North 21.9 mph 29.9 mph N/A   Clear
3:55 AM 24.1 °F 9.4 °F 18.0 °F 77% 29.74 in 10.0 mi North 20.7 mph 26.5 mph N/A   Overcast
4:55 AM 25.0 °F 9.9 °F 17.1 °F 72% 29.80 in 10.0 mi North 23.0 mph 27.6 mph N/A   Overcast
5:55 AM 24.1 °F 9.0 °F 17.1 °F 75% 29.85 in 10.0 mi North 21.9 mph 28.8 mph N/A   Overcast
6:55 AM 21.0 °F 6.6 °F 16.0 °F 81% 29.89 in 10.0 mi North 17.3 mph 26.5 mph N/A   Partly Cloudy
7:55 AM 24.1 °F 9.4 °F 17.1 °F 75% 29.96 in 10.0 mi North 20.7 mph 27.6 mph N/A   Partly Cloudy
8:55 AM 28.0 °F 13.0 °F 16.0 °F 61% 29.99 in 10.0 mi North 26.5 mph 33.4 mph N/A   Clear
9:55 AM 33.1 °F 20.3 °F 16.0 °F 50% 29.99 in 10.0 mi NNW 24.2 mph 32.2 mph N/A   Partly Cloudy
10:55 AM 35.1 °F 23.3 °F 12.0 °F 39% 30.00 in 10.0 mi NNW 23.0 mph 36.8 mph N/A   Clear
11:55 AM 37.0 °F 26.4 °F 10.0 °F 33% 29.99 in 10.0 mi NW 20.7 mph 31.1 mph N/A   Partly Cloudy
12:55 PM 36.0 °F 27.1 °F 8.1 °F 31% 29.99 in 10.0 mi North 13.8 mph 26.5 mph N/A   Mostly Cloudy
1:55 PM 37.9 °F 29.6 °F 5.0 °F 25% 29.97 in 10.0 mi NNW 13.8 mph 24.2 mph N/A   Partly Cloudy
2:55 PM 39.0 °F 31.0 °F 1.0 °F 20% 29.97 in 10.0 mi NW 13.8 mph 18.4 mph N/A   Clear
3:55 PM 39.0 °F 29.9 °F 1.0 °F 20% 29.98 in 10.0 mi NW 17.3 mph 32.2 mph N/A   Clear
4:55 PM 35.1 °F 26.4 °F 7.0 °F 31% 30.01 in 10.0 mi North 12.7 mph 23.0 mph N/A   Clear
5:55 PM 26.1 °F 18.4 °F 6.1 °F 43% 30.09 in 10.0 mi NE 6.9 mph - N/A   Clear
6:55 PM 19.9 °F 10.1 °F 1.9 °F 46% 30.14 in 10.0 mi NNW 8.1 mph - N/A   Clear
7:55 PM 19.0 °F 13.9 °F 10.0 °F 68% 30.16 in 10.0 mi South 3.5 mph - N/A   Clear
8:55 PM 12.9 °F 6.9 °F 7.0 °F 77% 30.18 in 10.0 mi North 3.5 mph - N/A   Clear
9:55 PM 10.0 °F - 5.0 °F 80% 30.20 in 10.0 mi Calm Calm - N/A   Clear
10:55 PM 5.0 °F -5.6 °F 1.9 °F 87% 30.22 in 10.0 mi North 5.8 mph - N/A   Clear
11:55 PM 8.1 °F - 5.0 °F 87% 30.19 in 10.0 mi Calm Calm - N/A   Clear